Location: Unspecified
(0.0000°N, 0.0000°E)
Time: 13:40:26
(UTC+00:00)

SR - Pass Details

Date: 20 November 2019
Orbit: 573 x 882 km, 66.7° (Epoch: 08 December)

Event Time Altitude Azimuth Distance (km) Brightness Sun altitude
Rises 00:19:21 0° 357° (N) 3,380 - -68.7°
Reaches altitude 10° 00:22:07 10° 6° (N) 2,409 - -68.5°
Maximum altitude 00:27:02 32° 69° (ENE) 1,301 - -67.9°
Drops below altitude 10° 00:31:37 10° 132° (SE) 2,241 - -67.4°
Sets 00:34:05 0° 142° (SE) 3,111 - -67.1°
